When you browse on this site, cookies collect data to enhance your experience and personalize the content and advertising you see.
Visit our Privacy Policy to learn more. By continuing to use the site, you agree to this use of cookies and data.
  • In Österreich
  • Länderverzeichnis
  • Für 7 Tage
  • Wassertemperatur
  • Wetterkarte
  • News
  • Widgets
  • user-avatar
    Anmelden

    Stündliche Wetter La Peña

    Heute, 23 September, Montag

    Zeit Temperatur Niederschläge Wind Luftdruck Luftfeuchtigkeit
    00:00 +20°C° 0.8 mm 1 m/S 671 mmHg 93%
    01:00 +20°C° 0 mm 1 m/S 671 mmHg 93%
    02:00 +19°C° 1.3 mm 1 m/S 670 mmHg 93%
    03:00 +19°C° 1.3 mm 1 m/S 670 mmHg 93%
    04:00 +19°C° 1.3 mm 1 m/S 670 mmHg 93%
    05:00 +20°C° 0.4 mm 1 m/S 671 mmHg 92%
    06:00 +20°C° 0.4 mm 1 m/S 671 mmHg 90%
    07:00 +21°C° 0.4 mm 1 m/S 672 mmHg 89%
    08:00 +23°C° 0.1 mm 1 m/S 672 mmHg 82%
    09:00 +25°C° 0.1 mm 1 m/S 672 mmHg 74%
    10:00 +27°C° 0.1 mm 1 m/S 673 mmHg 67%
    11:00 +28°C° 0.4 mm 1 m/S 672 mmHg 66%
    12:00 +28°C° 0.4 mm 1 m/S 671 mmHg 65%
    13:00 +29°C° 0.4 mm 1 m/S 670 mmHg 64%
    14:00 +29°C° 0.8 mm 1 m/S 670 mmHg 65%
    15:00 +28°C° 0.8 mm 1 m/S 670 mmHg 66%
    16:00 +28°C° 0.8 mm 1 m/S 669 mmHg 67%
    17:00 +26°C° 0.9 mm 1 m/S 669 mmHg 74%
    18:00 +24°C° 0.9 mm 1 m/S 669 mmHg 80%
    19:00 +22°C° 0.9 mm 1 m/S 669 mmHg 86%
    20:00 +22°C° 0.7 mm 1 m/S 670 mmHg 87%
    21:00 +22°C° 0.7 mm 1 m/S 670 mmHg 88%
    22:00 +22°C° 0.7 mm 1 m/S 671 mmHg 89%
    23:00 +22°C° 0.3 mm 1 m/S 671 mmHg 89%

    Morgen, 24 September, Dienstag

    Zeit Temperatur Niederschläge Wind Luftdruck Luftfeuchtigkeit
    00:00 +21°C° 0.3 mm 1 m/S 670 mmHg 90%
    01:00 +21°C° 0.3 mm 1 m/S 670 mmHg 90%
    02:00 +21°C° 0.1 mm 1 m/S 670 mmHg 91%
    03:00 +20°C° 0.1 mm 1 m/S 670 mmHg 91%
    04:00 +20°C° 0.1 mm 1 m/S 670 mmHg 91%
    05:00 +20°C° 0 mm 1 m/S 670 mmHg 90%
    06:00 +19°C° 0 mm 0 m/S 671 mmHg 88%
    07:00 +20°C° 0 mm 0 m/S 671 mmHg 86%
    08:00 +23°C° 0.2 mm 1 m/S 672 mmHg 82%
    09:00 +25°C° 0.2 mm 1 m/S 672 mmHg 78%
    10:00 +26°C° 0.2 mm 1 m/S 673 mmHg 74%
    11:00 +27°C° 0.5 mm 1 m/S 672 mmHg 72%
    12:00 +27°C° 0.5 mm 1 m/S 671 mmHg 70%
    13:00 +28°C° 0.5 mm 1 m/S 671 mmHg 68%
    14:00 +28°C° 0.2 mm 1 m/S 670 mmHg 66%
    15:00 +28°C° 0.2 mm 1 m/S 670 mmHg 65%
    16:00 +28°C° 0.2 mm 1 m/S 669 mmHg 64%
    17:00 +26°C° 0.4 mm 1 m/S 670 mmHg 71%
    18:00 +24°C° 0.4 mm 1 m/S 670 mmHg 78%
    19:00 +22°C° 0.4 mm 1 m/S 670 mmHg 85%
    20:00 +22°C° 0.3 mm 1 m/S 670 mmHg 84%
    21:00 +22°C° 0.3 mm 1 m/S 671 mmHg 84%
    22:00 +22°C° 0.3 mm 1 m/S 671 mmHg 83%
    23:00 +21°C° 0.2 mm 1 m/S 671 mmHg 84%

    übermorgen, 25 September, Mittwoch

    Zeit Temperatur Niederschläge Wind Luftdruck Luftfeuchtigkeit
    00:00 +21°C° 0.2 mm 1 m/S 671 mmHg 84%
    01:00 +21°C° 0.2 mm 1 m/S 670 mmHg 85%
    02:00 +21°C° 0.4 mm 1 m/S 670 mmHg 85%
    03:00 +21°C° 0.4 mm 1 m/S 670 mmHg 86%
    04:00 +19°C° 0.4 mm 0 m/S 670 mmHg 86%
    05:00 +19°C° 0.3 mm 0 m/S 671 mmHg 86%
    06:00 +19°C° 0.3 mm 0 m/S 671 mmHg 85%
    07:00 +20°C° 0.3 mm 0 m/S 672 mmHg 85%
    08:00 +24°C° 0.2 mm 1 m/S 672 mmHg 79%
    09:00 +25°C° 0.2 mm 1 m/S 672 mmHg 74%
    10:00 +27°C° 0.2 mm 1 m/S 673 mmHg 69%
    11:00 +28°C° 0.6 mm 1 m/S 672 mmHg 66%
    12:00 +28°C° 0.6 mm 1 m/S 671 mmHg 64%
    13:00 +29°C° 0.6 mm 1 m/S 670 mmHg 62%
    14:00 +29°C° 0.7 mm 1 m/S 670 mmHg 63%
    15:00 +28°C° 0.7 mm 1 m/S 669 mmHg 65%
    16:00 +28°C° 0.7 mm 1 m/S 669 mmHg 67%
    17:00 +26°C° 2 mm 1 m/S 669 mmHg 76%
    18:00 +24°C° 2 mm 1 m/S 669 mmHg 85%
    19:00 +22°C° 2 mm 1 m/S 669 mmHg 93%
    20:00 +22°C° 1.9 mm 1 m/S 670 mmHg 94%
    21:00 +21°C° 1.9 mm 1 m/S 670 mmHg 95%
    22:00 +19°C° 1.9 mm 0 m/S 671 mmHg 96%
    23:00 +21°C° 0.3 mm 1 m/S 671 mmHg 95%

    26 September, Donnerstag

    Zeit Temperatur Niederschläge Wind Luftdruck Luftfeuchtigkeit
    00:00 +20°C° 0.3 mm 1 m/S 670 mmHg 95%
    01:00 +20°C° 0.3 mm 1 m/S 670 mmHg 94%
    02:00 +20°C° 0 mm 1 m/S 670 mmHg 94%
    03:00 +20°C° 0 mm 1 m/S 670 mmHg 93%
    04:00 +20°C° 0 mm 1 m/S 670 mmHg 92%
    05:00 +20°C° 0 mm 1 m/S 670 mmHg 91%
    06:00 +21°C° 0 mm 1 m/S 671 mmHg 89%
    07:00 +21°C° 0 mm 1 m/S 671 mmHg 87%
    08:00 +23°C° 0 mm 1 m/S 672 mmHg 80%
    09:00 +25°C° 0 mm 1 m/S 672 mmHg 72%
    10:00 +27°C° 0 mm 1 m/S 672 mmHg 64%
    11:00 +27°C° 0.8 mm 1 m/S 672 mmHg 67%
    12:00 +28°C° 0.8 mm 1 m/S 671 mmHg 69%
    13:00 +28°C° 0.8 mm 1 m/S 670 mmHg 72%
    14:00 +27°C° 1.3 mm 1 m/S 669 mmHg 75%
    15:00 +25°C° 1.3 mm 0 m/S 669 mmHg 78%
    16:00 +24°C° 1.3 mm 0 m/S 668 mmHg 81%
    17:00 +23°C° 0.6 mm 0 m/S 668 mmHg 84%
    18:00 +24°C° 0.6 mm 1 m/S 669 mmHg 87%
    19:00 +22°C° 0.6 mm 1 m/S 669 mmHg 90%
    20:00 +22°C° 0.7 mm 1 m/S 669 mmHg 91%
    21:00 +21°C° 0.7 mm 1 m/S 670 mmHg 91%
    22:00 +20°C° 0.7 mm 1 m/S 670 mmHg 92%
    23:00 +20°C° 0.9 mm 1 m/S 670 mmHg 92%

    27 September, Freitag

    Zeit Temperatur Niederschläge Wind Luftdruck Luftfeuchtigkeit
    00:00 +20°C° 0.9 mm 1 m/S 670 mmHg 91%
    01:00 +20°C° 0.9 mm 1 m/S 669 mmHg 91%
    02:00 +20°C° 0.3 mm 1 m/S 669 mmHg 91%
    03:00 +19°C° 0.3 mm 1 m/S 669 mmHg 90%
    04:00 +19°C° 0.3 mm 1 m/S 669 mmHg 90%
    05:00 +20°C° 0.2 mm 1 m/S 670 mmHg 88%
    06:00 +20°C° 0.2 mm 1 m/S 670 mmHg 87%
    07:00 +21°C° 0.2 mm 1 m/S 671 mmHg 85%
    08:00 +23°C° 0.3 mm 1 m/S 671 mmHg 80%
    09:00 +25°C° 0.3 mm 1 m/S 672 mmHg 76%
    10:00 +26°C° 0.3 mm 1 m/S 672 mmHg 71%
    11:00 +27°C° 0.8 mm 1 m/S 671 mmHg 72%
    12:00 +27°C° 0.8 mm 1 m/S 671 mmHg 73%
    13:00 +27°C° 0.8 mm 1 m/S 670 mmHg 75%
    14:00 +27°C° 1.2 mm 1 m/S 669 mmHg 76%
    15:00 +27°C° 1.2 mm 1 m/S 669 mmHg 78%
    16:00 +24°C° 1.2 mm 0 m/S 669 mmHg 80%
    17:00 +25°C° 1.3 mm 1 m/S 669 mmHg 84%
    18:00 +23°C° 1.3 mm 1 m/S 669 mmHg 89%
    19:00 +22°C° 1.3 mm 1 m/S 669 mmHg 94%
    20:00 +21°C° 1.4 mm 1 m/S 669 mmHg 94%
    21:00 +21°C° 1.4 mm 1 m/S 670 mmHg 94%
    22:00 +20°C° 1.4 mm 1 m/S 670 mmHg 94%
    23:00 +20°C° 0.5 mm 1 m/S 670 mmHg 94%

    28 September, Samstag

    Zeit Temperatur Niederschläge Wind Luftdruck Luftfeuchtigkeit
    00:00 +20°C° 0.5 mm 1 m/S 670 mmHg 94%
    01:00 +19°C° 0.5 mm 1 m/S 670 mmHg 94%
    02:00 +19°C° 0.1 mm 1 m/S 669 mmHg 93%
    03:00 +19°C° 0.1 mm 1 m/S 669 mmHg 93%
    04:00 +19°C° 0.1 mm 1 m/S 669 mmHg 93%
    05:00 +20°C° 0 mm 1 m/S 669 mmHg 92%
    06:00 +20°C° 0 mm 1 m/S 670 mmHg 90%
    07:00 +21°C° 0 mm 1 m/S 671 mmHg 88%
    08:00 +23°C° 0.1 mm 1 m/S 671 mmHg 79%
    09:00 +26°C° 0.1 mm 1 m/S 672 mmHg 70%
    10:00 +28°C° 0.1 mm 1 m/S 672 mmHg 62%
    11:00 +28°C° 0.3 mm 1 m/S 671 mmHg 61%
    12:00 +29°C° 0.3 mm 1 m/S 670 mmHg 61%
    13:00 +29°C° 0.3 mm 1 m/S 670 mmHg 60%
    14:00 +28°C° 0.9 mm 1 m/S 669 mmHg 67%
    15:00 +28°C° 0.9 mm 1 m/S 668 mmHg 74%
    16:00 +25°C° 0.9 mm 0 m/S 668 mmHg 80%
    17:00 +23°C° 1.8 mm 0 m/S 668 mmHg 84%
    18:00 +22°C° 1.8 mm 0 m/S 668 mmHg 88%
    19:00 +20°C° 1.8 mm 0 m/S 668 mmHg 93%
    20:00 +20°C° 1.2 mm 0 m/S 669 mmHg 94%
    21:00 +22°C° 1.2 mm 1 m/S 669 mmHg 95%
    22:00 +21°C° 1.2 mm 1 m/S 669 mmHg 96%
    23:00 +21°C° 0.4 mm 1 m/S 669 mmHg 96%
    Mehr zeigen